Time,TemperatureF,DewpointF,PressureIn,WindDirection,WindDirectionDegrees,WindSpeedMPH,WindSpeedGustMPH,Humidity,HourlyPrecipIn,Conditions,Clouds,dailyrainin,SoftwareType,DateUTC
2014-03-06 00:01:00,59.0,41.4,30.12,North,0,2.0,3.0,52,0.00,,,0.00,meteohub,2014-03-06 08:01:00,
2014-03-06 00:05:00,59.0,41.4,30.11,North,0,2.0,3.0,52,0.00,,,0.00,meteohub,2014-03-06 08:05:00,
2014-03-06 00:10:00,58.8,42.6,30.11,North,0,2.0,2.0,55,0.00,,,0.00,meteohub,2014-03-06 08:10:00,
2014-03-06 00:15:00,58.8,42.3,30.11,North,0,2.0,3.0,54,0.00,,,0.00,meteohub,2014-03-06 08:15:00,
2014-03-06 00:20:00,58.6,42.4,30.12,North,0,2.0,3.0,55,0.00,,,0.00,meteohub,2014-03-06 08:20:00,
2014-03-06 00:25:00,58.5,42.4,30.12,North,0,2.0,3.0,55,0.00,,,0.00,meteohub,2014-03-06 08:25:00,
2014-03-06 00:26:00,58.5,42.4,30.12,North,0,2.0,3.0,55,0.00,,,0.00,meteohub,2014-03-06 08:26:00,
2014-03-06 00:31:00,58.3,42.3,30.12,North,0,3.0,3.0,55,0.00,,,0.00,meteohub,2014-03-06 08:31:00,
2014-03-06 00:36:00,58.3,42.3,30.12,North,0,2.0,3.0,55,0.00,,,0.00,meteohub,2014-03-06 08:36:00,
2014-03-06 00:41:00,58.1,42.4,30.12,North,0,2.0,3.0,56,0.00,,,0.00,meteohub,2014-03-06 08:41:00,
2014-03-06 00:46:00,58.3,42.6,30.12,North,0,2.0,3.0,56,0.00,,,0.00,meteohub,2014-03-06 08:46:00,
2014-03-06 00:51:00,58.3,43.2,30.13,North,0,2.0,3.0,57,0.00,,,0.00,meteohub,2014-03-06 08:51:00,
2014-03-06 00:56:00,58.3,43.2,30.13,North,0,2.0,3.0,57,0.00,,,0.00,meteohub,2014-03-06 08:56:00,
2014-03-06 01:01:00,58.3,43.5,30.13,North,0,3.0,3.0,58,0.00,,,0.00,meteohub,2014-03-06 09:01:00,
2014-03-06 01:06:00,58.5,44.2,30.13,North,0,3.0,3.0,59,0.00,,,0.00,meteohub,2014-03-06 09:06:00,
2014-03-06 01:11:00,58.6,44.8,30.12,North,0,2.0,3.0,60,0.00,,,0.00,meteohub,2014-03-06 09:11:00,
2014-03-06 01:16:00,58.6,45.3,30.12,North,0,2.0,3.0,61,0.00,,,0.00,meteohub,2014-03-06 09:16:00,
2014-03-06 01:21:00,58.5,45.5,30.12,North,0,2.0,3.0,62,0.00,,,0.00,meteohub,2014-03-06 09:21:00,
2014-03-06 01:26:00,58.3,45.7,30.12,North,0,2.0,2.0,63,0.00,,,0.00,meteohub,2014-03-06 09:26:00,
2014-03-06 01:31:00,58.1,45.5,30.13,North,0,2.0,2.0,63,0.00,,,0.00,meteohub,2014-03-06 09:31:00,
2014-03-06 01:36:00,58.1,45.5,30.13,North,0,2.0,2.0,63,0.00,,,0.00,meteohub,2014-03-06 09:36:00,
2014-03-06 01:41:00,57.9,45.3,30.13,North,0,2.0,2.0,63,0.00,,,0.00,meteohub,2014-03-06 09:41:00,
2014-03-06 01:46:00,57.9,45.9,30.14,North,0,2.0,2.0,64,0.00,,,0.00,meteohub,2014-03-06 09:46:00,
2014-03-06 01:51:00,57.9,46.2,30.14,North,0,2.0,2.0,65,0.00,,,0.00,meteohub,2014-03-06 09:51:00,
2014-03-06 01:56:00,57.7,46.9,30.14,North,0,2.0,2.0,67,0.00,,,0.00,meteohub,2014-03-06 09:56:00,
2014-03-06 02:01:00,57.7,46.9,30.14,West,270,2.0,2.0,67,0.00,,,0.00,meteohub,2014-03-06 10:01:00,
2014-03-06 02:06:00,57.7,46.9,30.14,West,270,2.0,2.0,67,0.00,,,0.00,meteohub,2014-03-06 10:06:00,
2014-03-06 02:11:00,57.4,46.9,30.13,North,0,2.0,2.0,68,0.00,,,0.00,meteohub,2014-03-06 10:11:00,
2014-03-06 02:16:00,57.4,47.3,30.14,North,0,2.0,2.0,69,0.00,,,0.00,meteohub,2014-03-06 10:16:00,
2014-03-06 02:21:00,57.4,47.3,30.13,North,0,2.0,2.0,69,0.00,,,0.00,meteohub,2014-03-06 10:21:00,
2014-03-06 02:26:00,57.4,47.7,30.13,North,0,2.0,2.0,70,0.00,,,0.00,meteohub,2014-03-06 10:26:00,
2014-03-06 02:31:00,57.2,47.8,30.13,North,0,2.0,2.0,71,0.00,,,0.00,meteohub,2014-03-06 10:31:00,
2014-03-06 02:36:00,57.0,48.0,30.13,North,0,2.0,2.0,72,0.00,,,0.00,meteohub,2014-03-06 10:36:00,
2014-03-06 02:41:00,57.0,48.4,30.13,North,0,2.0,2.0,73,0.00,,,0.00,meteohub,2014-03-06 10:41:00,
2014-03-06 02:46:00,56.8,48.6,30.12,North,0,2.0,2.0,74,0.00,,,0.00,meteohub,2014-03-06 10:46:00,
2014-03-06 02:51:00,56.8,48.6,30.12,North,0,2.0,2.0,74,0.00,,,0.00,meteohub,2014-03-06 10:51:00,
2014-03-06 02:56:00,56.7,48.7,30.12,North,0,2.0,2.0,75,0.00,,,0.00,meteohub,2014-03-06 10:56:00,
2014-03-06 03:01:00,56.7,49.1,30.12,North,0,0.0,2.0,76,0.00,,,0.00,meteohub,2014-03-06 11:01:00,
2014-03-06 03:06:00,56.5,48.9,30.12,North,0,2.0,2.0,76,0.00,,,0.00,meteohub,2014-03-06 11:06:00,
2014-03-06 03:11:00,56.5,48.9,30.11,North,0,2.0,2.0,76,0.00,,,0.00,meteohub,2014-03-06 11:11:00,
2014-03-06 03:16:00,56.3,49.1,30.11,North,0,2.0,2.0,77,0.00,,,0.00,meteohub,2014-03-06 11:16:00,
2014-03-06 03:21:00,56.5,49.3,30.12,North,0,2.0,2.0,77,0.00,,,0.00,meteohub,2014-03-06 11:21:00,
2014-03-06 03:26:00,56.5,49.6,30.12,North,0,1.0,2.0,78,0.00,,,0.00,meteohub,2014-03-06 11:26:00,
2014-03-06 03:31:00,56.3,49.5,30.12,North,0,1.0,2.0,78,0.00,,,0.00,meteohub,2014-03-06 11:31:00,
2014-03-06 03:36:00,56.3,49.5,30.12,North,0,0.0,2.0,78,0.00,,,0.00,meteohub,2014-03-06 11:36:00,
2014-03-06 03:41:00,56.1,49.3,30.12,North,0,0.0,2.0,78,0.00,,,0.00,meteohub,2014-03-06 11:41:00,
2014-03-06 03:46:00,56.1,49.6,30.12,North,0,2.0,2.0,79,0.00,,,0.00,meteohub,2014-03-06 11:46:00,
2014-03-06 03:51:00,56.1,49.6,30.11,North,0,2.0,2.0,79,0.00,,,0.00,meteohub,2014-03-06 11:51:00,
2014-03-06 03:56:00,56.1,49.6,30.11,North,0,2.0,2.0,79,0.00,,,0.00,meteohub,2014-03-06 11:56:00,
2014-03-06 04:01:00,56.1,49.6,30.11,North,0,0.0,2.0,79,0.00,,,0.00,meteohub,2014-03-06 12:01:00,
2014-03-06 04:06:00,56.1,49.6,30.11,North,0,0.0,2.0,79,0.00,,,0.00,meteohub,2014-03-06 12:06:00,
2014-03-06 04:11:00,56.1,49.6,30.11,North,0,2.0,2.0,79,0.00,,,0.00,meteohub,2014-03-06 12:11:00,
2014-03-06 04:16:00,56.1,49.6,30.11,NE,45,0.0,2.0,79,0.00,,,0.00,meteohub,2014-03-06 12:16:00,
2014-03-06 04:21:00,56.3,49.5,30.12,NE,45,0.0,2.0,78,0.00,,,0.00,meteohub,2014-03-06 12:21:00,
2014-03-06 04:26:00,56.5,49.3,30.11,North,0,0.0,2.0,77,0.00,,,0.00,meteohub,2014-03-06 12:26:00,
2014-03-06 04:31:00,56.7,49.1,30.11,NE,45,0.0,0.0,76,0.00,,,0.00,meteohub,2014-03-06 12:31:00,
2014-03-06 04:36:00,56.7,49.1,30.11,North,0,0.0,0.0,76,0.00,,,0.00,meteohub,2014-03-06 12:36:00,
2014-03-06 04:41:00,56.7,48.7,30.11,North,0,0.0,0.0,75,0.00,,,0.00,meteohub,2014-03-06 12:41:00,
2014-03-06 04:46:00,56.7,48.7,30.10,North,0,0.0,0.0,75,0.00,,,0.00,meteohub,2014-03-06 12:46:00,
2014-03-06 04:51:00,56.5,48.7,30.10,North,0,0.0,0.0,75,0.00,,,0.00,meteohub,2014-03-06 12:51:00,
2014-03-06 04:56:00,56.3,48.6,30.10,North,0,0.0,0.0,75,0.00,,,0.00,meteohub,2014-03-06 12:56:00,
2014-03-06 05:01:00,55.9,48.2,30.11,North,0,0.0,0.0,75,0.00,,,0.00,meteohub,2014-03-06 13:01:00,
2014-03-06 05:06:00,55.6,47.8,30.10,North,0,0.0,0.0,75,0.00,,,0.00,meteohub,2014-03-06 13:06:00,
2014-03-06 05:11:00,55.2,48.2,30.11,North,0,0.0,0.0,77,0.00,,,0.00,meteohub,2014-03-06 13:11:00,
2014-03-06 05:16:00,55.0,48.4,30.11,North,0,0.0,0.0,78,0.00,,,0.00,meteohub,2014-03-06 13:16:00,
2014-03-06 05:21:00,54.9,47.8,30.10,North,0,0.0,0.0,77,0.00,,,0.00,meteohub,2014-03-06 13:21:00,
2014-03-06 05:26:00,54.9,47.5,30.11,North,0,0.0,0.0,76,0.00,,,0.00,meteohub,2014-03-06 13:26:00,
2014-03-06 05:31:00,55.0,47.7,30.11,North,0,0.0,0.0,76,0.00,,,0.00,meteohub,2014-03-06 13:31:00,
2014-03-06 05:36:00,55.0,47.3,30.11,NW,315,0.0,0.0,75,0.00,,,0.00,meteohub,2014-03-06 13:36:00,
2014-03-06 05:41:00,54.9,47.1,30.11,NW,315,0.0,0.0,75,0.00,,,0.00,meteohub,2014-03-06 13:41:00,
2014-03-06 05:46:00,54.7,46.9,30.11,NW,315,2.0,0.0,75,0.00,,,0.00,meteohub,2014-03-06 13:46:00,
2014-03-06 05:51:00,54.3,46.6,30.11,NW,315,2.0,3.0,75,0.00,,,0.00,meteohub,2014-03-06 13:51:00,
2014-03-06 05:56:00,54.1,46.0,30.11,NW,315,2.0,3.0,74,0.00,,,0.00,meteohub,2014-03-06 13:56:00,
2014-03-06 06:01:00,54.3,45.9,30.11,North,0,2.0,3.0,73,0.00,,,0.00,meteohub,2014-03-06 14:01:00,
2014-03-06 06:06:00,54.3,45.9,30.11,North,0,2.0,3.0,73,0.00,,,0.00,meteohub,2014-03-06 14:06:00,
2014-03-06 06:11:00,54.1,45.3,30.12,NW,315,3.0,3.0,72,0.00,,,0.00,meteohub,2014-03-06 14:11:00,
2014-03-06 06:16:00,54.1,45.3,30.12,NW,315,3.0,3.0,72,0.00,,,0.00,meteohub,2014-03-06 14:16:00,
2014-03-06 06:21:00,54.0,45.1,30.12,NW,315,2.0,3.0,72,0.00,,,0.00,meteohub,2014-03-06 14:21:00,
2014-03-06 06:26:00,54.1,45.3,30.12,NW,315,2.0,3.0,72,0.00,,,0.00,meteohub,2014-03-06 14:26:00,
2014-03-06 06:31:00,54.3,45.5,30.13,NW,315,3.0,3.0,72,0.00,,,0.00,meteohub,2014-03-06 14:31:00,
2014-03-06 06:36:00,54.3,45.5,30.13,NW,315,2.0,3.0,72,0.00,,,0.00,meteohub,2014-03-06 14:36:00,
2014-03-06 06:41:00,54.3,45.9,30.13,West,270,2.0,3.0,73,0.00,,,0.00,meteohub,2014-03-06 14:41:00,
2014-03-06 06:46:00,54.5,46.0,30.14,West,270,0.0,3.0,73,0.00,,,0.00,meteohub,2014-03-06 14:46:00,
2014-03-06 06:51:00,54.9,46.4,30.14,West,270,2.0,2.0,73,0.00,,,0.00,meteohub,2014-03-06 14:51:00,
2014-03-06 06:56:00,55.4,46.9,30.14,North,0,2.0,2.0,73,0.00,,,0.00,meteohub,2014-03-06 14:56:00,
2014-03-06 07:01:00,55.8,46.9,30.14,West,270,2.0,3.0,72,0.00,,,0.00,meteohub,2014-03-06 15:01:00,
2014-03-06 07:06:00,56.3,47.5,30.14,West,270,1.0,3.0,72,0.00,,,0.00,meteohub,2014-03-06 15:06:00,
2014-03-06 07:11:00,56.7,47.3,30.14,West,270,0.0,3.0,71,0.00,,,0.00,meteohub,2014-03-06 15:11:00,
2014-03-06 07:16:00,57.2,47.5,30.14,South,180,3.0,3.0,70,0.00,,,0.00,meteohub,2014-03-06 15:16:00,
2014-03-06 07:21:00,57.6,47.8,30.14,South,180,2.0,3.0,70,0.00,,,0.00,meteohub,2014-03-06 15:21:00,
2014-03-06 07:26:00,57.6,48.2,30.14,South,180,2.0,3.0,71,0.00,,,0.00,meteohub,2014-03-06 15:26:00,
2014-03-06 07:31:00,57.7,48.4,30.14,South,180,1.0,3.0,71,0.00,,,0.00,meteohub,2014-03-06 15:31:00,
2014-03-06 07:36:00,57.9,48.9,30.14,South,180,2.0,2.0,72,0.00,,,0.00,meteohub,2014-03-06 15:36:00,
2014-03-06 07:41:00,58.1,49.1,30.15,South,180,2.0,2.0,72,0.00,,,0.00,meteohub,2014-03-06 15:41:00,
2014-03-06 07:46:00,58.3,49.3,30.14,South,180,1.0,2.0,72,0.00,,,0.00,meteohub,2014-03-06 15:46:00,
2014-03-06 07:51:00,58.3,49.6,30.15,SW,225,2.0,2.0,73,0.00,,,0.00,meteohub,2014-03-06 15:51:00,
2014-03-06 07:56:00,58.1,49.5,30.15,East,90,1.0,2.0,73,0.00,,,0.00,meteohub,2014-03-06 15:56:00,
2014-03-06 08:01:00,58.3,50.0,30.16,SW,225,0.0,3.0,74,0.00,,,0.00,meteohub,2014-03-06 16:01:00,
2014-03-06 08:06:00,58.3,50.0,30.15,SW,225,0.0,3.0,74,0.00,,,0.00,meteohub,2014-03-06 16:06:00,
2014-03-06 08:11:00,59.5,51.3,30.15,South,180,2.0,2.0,74,0.00,,,0.00,meteohub,2014-03-06 16:11:00,
2014-03-06 08:16:00,59.7,51.4,30.15,SE,135,1.0,2.0,74,0.00,,,0.00,meteohub,2014-03-06 16:16:00,
2014-03-06 08:21:00,59.9,51.3,30.15,East,90,2.0,2.0,73,0.00,,,0.00,meteohub,2014-03-06 16:21:00,
2014-03-06 08:26:00,60.3,51.6,30.15,SE,135,2.0,3.0,73,0.00,,,0.00,meteohub,2014-03-06 16:26:00,
2014-03-06 08:31:00,60.6,52.0,30.15,East,90,6.0,6.0,73,0.00,,,0.00,meteohub,2014-03-06 16:31:00,
2014-03-06 08:36:00,61.0,52.0,30.15,East,90,4.0,6.0,72,0.00,,,0.00,meteohub,2014-03-06 16:36:00,
2014-03-06 08:41:00,61.7,52.9,30.16,East,90,3.0,6.0,73,0.00,,,0.00,meteohub,2014-03-06 16:41:00,
2014-03-06 08:46:00,62.2,53.8,30.16,South,180,3.0,6.0,74,0.00,,,0.00,meteohub,2014-03-06 16:46:00,
2014-03-06 08:51:00,62.2,53.8,30.16,SE,135,3.0,5.0,74,0.00,,,0.00,meteohub,2014-03-06 16:51:00,
2014-03-06 08:56:00,62.4,54.0,30.16,SE,135,4.0,5.0,74,0.00,,,0.00,meteohub,2014-03-06 16:56:00,
2014-03-06 09:01:00,62.8,54.0,30.16,SE,135,3.0,5.0,73,0.00,,,0.00,meteohub,2014-03-06 17:01:00,
2014-03-06 09:06:00,62.8,54.3,30.16,SW,225,3.0,5.0,74,0.00,,,0.00,meteohub,2014-03-06 17:06:00,
2014-03-06 09:11:00,63.0,54.5,30.17,SE,135,3.0,5.0,74,0.00,,,0.00,meteohub,2014-03-06 17:11:00,
2014-03-06 09:16:00,62.8,54.3,30.17,WSW,248,2.0,8.0,74,0.00,,,0.00,meteohub,2014-03-06 17:16:00,
2014-03-06 09:21:00,62.4,54.3,30.17,South,180,4.0,8.0,75,0.00,,,0.00,meteohub,2014-03-06 17:21:00,
2014-03-06 09:26:00,62.4,54.7,30.17,South,180,4.0,8.0,76,0.00,,,0.00,meteohub,2014-03-06 17:26:00,
2014-03-06 09:31:00,62.6,54.1,30.17,South,180,2.0,4.0,74,0.00,,,0.00,meteohub,2014-03-06 17:31:00,
2014-03-06 09:36:00,63.0,54.5,30.17,SW,225,2.0,4.0,74,0.00,,,0.00,meteohub,2014-03-06 17:36:00,
2014-03-06 09:41:00,63.1,54.7,30.17,South,180,4.0,4.0,74,0.00,,,0.00,meteohub,2014-03-06 17:41:00,
2014-03-06 09:46:00,63.7,54.9,30.16,South,180,3.0,4.0,73,0.00,,,0.00,meteohub,2014-03-06 17:46:00,
2014-03-06 09:51:00,63.7,54.5,30.16,East,90,5.0,5.0,72,0.00,,,0.00,meteohub,2014-03-06 17:51:00,
2014-03-06 09:56:00,63.9,55.0,30.17,SE,135,4.0,6.0,73,0.00,,,0.00,meteohub,2014-03-06 17:56:00,
2014-03-06 10:01:00,64.0,54.9,30.17,East,90,4.0,6.0,72,0.00,,,0.00,meteohub,2014-03-06 18:01:00,
2014-03-06 10:06:00,63.9,54.0,30.17,SW,225,3.0,7.0,70,0.00,,,0.00,meteohub,2014-03-06 18:06:00,
2014-03-06 10:11:00,64.0,54.1,30.17,South,180,2.0,7.0,70,0.00,,,0.00,meteohub,2014-03-06 18:11:00,
2014-03-06 10:16:00,64.2,54.7,30.17,SW,225,2.0,4.0,71,0.00,,,0.00,meteohub,2014-03-06 18:16:00,
2014-03-06 10:21:00,64.4,53.6,30.17,SE,135,2.0,4.0,68,0.00,,,0.00,meteohub,2014-03-06 18:21:00,
2014-03-06 10:27:00,64.4,53.2,30.17,SW,225,2.0,4.0,67,0.00,,,0.00,meteohub,2014-03-06 18:27:00,
2014-03-06 10:32:00,64.6,52.5,30.16,South,180,2.0,4.0,65,0.00,,,0.00,meteohub,2014-03-06 18:32:00,
2014-03-06 10:37:00,65.1,52.2,30.16,South,180,4.0,4.0,63,0.00,,,0.00,meteohub,2014-03-06 18:37:00,
2014-03-06 10:42:00,65.3,52.3,30.16,SW,225,3.0,4.0,63,0.00,,,0.00,meteohub,2014-03-06 18:42:00,
2014-03-06 10:47:00,65.5,52.5,30.16,SW,225,3.0,4.0,63,0.00,,,0.00,meteohub,2014-03-06 18:47:00,
2014-03-06 10:52:00,65.8,53.8,30.16,East,90,4.0,4.0,65,0.00,,,0.00,meteohub,2014-03-06 18:52:00,
2014-03-06 10:57:00,66.4,52.9,30.15,South,180,6.0,6.0,62,0.00,,,0.00,meteohub,2014-03-06 18:57:00,
2014-03-06 11:02:00,66.4,52.9,30.15,SE,135,3.0,6.0,62,0.00,,,0.00,meteohub,2014-03-06 19:02:00,
2014-03-06 11:07:00,67.1,53.6,30.14,SW,225,4.0,6.0,62,0.00,,,0.00,meteohub,2014-03-06 19:07:00,
2014-03-06 11:12:00,67.6,53.8,30.14,SW,225,4.0,6.0,61,0.00,,,0.00,meteohub,2014-03-06 19:12:00,
2014-03-06 11:17:00,68.0,52.2,30.14,South,180,4.0,4.0,57,0.00,,,0.00,meteohub,2014-03-06 19:17:00,
2014-03-06 11:22:00,68.5,50.7,30.14,South,180,4.0,4.0,53,0.00,,,0.00,meteohub,2014-03-06 19:22:00,
2014-03-06 11:27:00,69.1,51.3,30.14,SW,225,4.0,5.0,53,0.00,,,0.00,meteohub,2014-03-06 19:27:00,
2014-03-06 11:32:00,69.3,52.3,30.14,South,180,2.0,5.0,55,0.00,,,0.00,meteohub,2014-03-06 19:32:00,
2014-03-06 11:37:00,69.6,51.8,30.14,SW,225,2.0,4.0,53,0.00,,,0.00,meteohub,2014-03-06 19:37:00,
2014-03-06 11:42:00,69.6,51.8,30.14,SW,225,4.0,4.0,53,0.00,,,0.00,meteohub,2014-03-06 19:42:00,
2014-03-06 11:47:00,69.8,51.4,30.13,SW,225,4.0,6.0,52,0.00,,,0.00,meteohub,2014-03-06 19:47:00,
2014-03-06 11:52:00,70.0,51.6,30.13,South,180,4.0,6.0,52,0.00,,,0.00,meteohub,2014-03-06 19:52:00,
2014-03-06 11:57:00,70.2,51.8,30.13,South,180,4.0,6.0,52,0.00,,,0.00,meteohub,2014-03-06 19:57:00,
2014-03-06 12:02:00,70.0,51.1,30.12,SE,135,3.0,6.0,51,0.00,,,0.00,meteohub,2014-03-06 20:02:00,
2014-03-06 12:07:00,70.3,51.4,30.12,South,180,4.0,6.0,51,0.00,,,0.00,meteohub,2014-03-06 20:07:00,
2014-03-06 12:12:00,70.2,50.7,30.12,South,180,6.0,6.0,50,0.00,,,0.00,meteohub,2014-03-06 20:12:00,
2014-03-06 12:17:00,70.5,51.4,30.11,East,90,5.0,6.0,51,0.00,,,0.00,meteohub,2014-03-06 20:17:00,
2014-03-06 12:22:00,71.1,51.4,30.11,South,180,5.0,6.0,50,0.00,,,0.00,meteohub,2014-03-06 20:22:00,
2014-03-06 12:27:00,70.9,51.3,30.11,SE,135,4.0,6.0,50,0.00,,,0.00,meteohub,2014-03-06 20:27:00,
2014-03-06 12:32:00,71.2,51.1,30.11,South,180,4.0,5.0,49,0.00,,,0.00,meteohub,2014-03-06 20:32:00,
2014-03-06 12:37:00,71.6,51.4,30.10,South,180,5.0,5.0,49,0.00,,,0.00,meteohub,2014-03-06 20:37:00,
2014-03-06 12:41:00,71.4,51.8,30.11,South,180,5.0,6.0,50,0.00,,,0.00,meteohub,2014-03-06 20:41:00,
2014-03-06 12:46:00,71.2,51.6,30.10,SW,225,4.0,6.0,50,0.00,,,0.00,meteohub,2014-03-06 20:46:00,
2014-03-06 12:51:00,71.4,51.8,30.10,SW,225,4.0,6.0,50,0.00,,,0.00,meteohub,2014-03-06 20:51:00,
2014-03-06 12:56:00,71.6,51.4,30.10,South,180,5.0,6.0,49,0.00,,,0.00,meteohub,2014-03-06 20:56:00,
2014-03-06 13:01:00,71.8,53.8,30.10,South,180,4.0,6.0,53,0.00,,,0.00,meteohub,2014-03-06 21:01:00,
2014-03-06 13:06:00,72.1,53.6,30.10,South,180,5.0,6.0,52,0.00,,,0.00,meteohub,2014-03-06 21:06:00,
2014-03-06 13:11:00,71.8,53.8,30.09,South,180,4.0,8.0,53,0.00,,,0.00,meteohub,2014-03-06 21:11:00,
2014-03-06 13:16:00,71.4,53.4,30.09,WSW,248,5.0,8.0,53,0.00,,,0.00,meteohub,2014-03-06 21:16:00,
2014-03-06 13:21:00,71.1,53.1,30.09,SW,225,6.0,8.0,53,0.00,,,0.00,meteohub,2014-03-06 21:21:00,
2014-03-06 13:26:00,70.9,53.4,30.09,SW,225,3.0,7.0,54,0.00,,,0.00,meteohub,2014-03-06 21:26:00,
2014-03-06 13:31:00,71.2,53.8,30.09,SW,225,4.0,7.0,54,0.00,,,0.00,meteohub,2014-03-06 21:31:00,
2014-03-06 13:36:00,71.6,53.6,30.08,South,180,4.0,7.0,53,0.00,,,0.00,meteohub,2014-03-06 21:36:00,
2014-03-06 13:41:00,71.1,54.1,30.08,SW,225,4.0,7.0,55,0.00,,,0.00,meteohub,2014-03-06 21:41:00,
2014-03-06 13:46:00,71.2,53.8,30.08,NW,315,3.0,7.0,54,0.00,,,0.00,meteohub,2014-03-06 21:46:00,
2014-03-06 13:51:00,72.1,53.6,30.08,SW,225,6.0,7.0,52,0.00,,,0.00,meteohub,2014-03-06 21:51:00,
2014-03-06 13:56:00,72.3,53.2,30.08,SW,225,7.0,8.0,51,0.00,,,0.00,meteohub,2014-03-06 21:56:00,
2014-03-06 14:01:00,72.1,53.1,30.08,SW,225,5.0,8.0,51,0.00,,,0.00,meteohub,2014-03-06 22:01:00,
2014-03-06 14:06:00,71.4,52.9,30.08,South,180,2.0,8.0,52,0.00,,,0.00,meteohub,2014-03-06 22:06:00,
2014-03-06 14:11:00,71.1,53.6,30.08,SW,225,4.0,8.0,54,0.00,,,0.00,meteohub,2014-03-06 22:11:00,
2014-03-06 14:16:00,71.4,52.9,30.08,West,270,4.0,8.0,52,0.00,,,0.00,meteohub,2014-03-06 22:16:00,
2014-03-06 14:21:00,71.6,52.0,30.07,West,270,3.0,6.0,50,0.00,,,0.00,meteohub,2014-03-06 22:21:00,
2014-03-06 14:26:00,71.8,52.2,30.07,West,270,2.0,8.0,50,0.00,,,0.00,meteohub,2014-03-06 22:26:00,
2014-03-06 14:31:00,72.1,52.5,30.07,SW,225,4.0,8.0,50,0.00,,,0.00,meteohub,2014-03-06 22:31:00,
2014-03-06 14:36:00,72.3,52.7,30.07,SW,225,6.0,7.0,50,0.00,,,0.00,meteohub,2014-03-06 22:36:00,
2014-03-06 14:41:00,72.3,53.2,30.06,South,180,4.0,7.0,51,0.00,,,0.00,meteohub,2014-03-06 22:41:00,
2014-03-06 14:46:00,72.0,54.0,30.06,SW,225,4.0,7.0,53,0.00,,,0.00,meteohub,2014-03-06 22:46:00,
2014-03-06 14:51:00,71.6,54.1,30.06,SW,225,4.0,7.0,54,0.00,,,0.00,meteohub,2014-03-06 22:51:00,
2014-03-06 14:57:00,71.1,54.5,30.06,SW,225,7.0,7.0,56,0.00,,,0.00,meteohub,2014-03-06 22:57:00,
2014-03-06 15:02:00,70.9,55.8,30.06,SW,225,5.0,7.0,59,0.00,,,0.00,meteohub,2014-03-06 23:02:00,
2014-03-06 15:07:00,71.1,55.9,30.06,SW,225,4.0,7.0,59,0.00,,,0.00,meteohub,2014-03-06 23:07:00,
2014-03-06 15:12:00,70.9,55.8,30.05,South,180,7.0,7.0,59,0.00,,,0.00,meteohub,2014-03-06 23:12:00,
2014-03-06 15:17:00,70.2,55.2,30.05,South,180,4.0,7.0,59,0.00,,,0.00,meteohub,2014-03-06 23:17:00,
2014-03-06 15:22:00,70.0,55.0,30.06,West,270,4.0,7.0,59,0.00,,,0.00,meteohub,2014-03-06 23:22:00,
2014-03-06 15:27:00,70.3,55.4,30.06,SW,225,4.0,7.0,59,0.00,,,0.00,meteohub,2014-03-06 23:27:00,
2014-03-06 15:32:00,70.5,55.6,30.05,West,270,5.0,7.0,59,0.00,,,0.00,meteohub,2014-03-06 23:32:00,
2014-03-06 15:37:00,70.5,55.6,30.05,South,180,4.0,5.0,59,0.00,,,0.00,meteohub,2014-03-06 23:37:00,
2014-03-06 15:42:00,70.2,55.6,30.05,South,180,5.0,7.0,60,0.00,,,0.00,meteohub,2014-03-06 23:42:00,
2014-03-06 15:47:00,70.2,55.6,30.05,SW,225,2.0,7.0,60,0.00,,,0.00,meteohub,2014-03-06 23:47:00,
2014-03-06 15:52:00,70.3,55.8,30.06,South,180,5.0,7.0,60,0.00,,,0.00,meteohub,2014-03-06 23:52:00,
2014-03-06 15:57:00,69.8,55.2,30.06,SW,225,3.0,8.0,60,0.00,,,0.00,meteohub,2014-03-06 23:57:00,
2014-03-06 16:02:00,69.6,55.9,30.05,South,180,4.0,8.0,62,0.00,,,0.00,meteohub,2014-03-07 00:02:00,
2014-03-06 16:07:00,69.3,55.8,30.06,West,270,4.0,8.0,62,0.00,,,0.00,meteohub,2014-03-07 00:07:00,
2014-03-06 16:12:00,68.9,55.4,30.06,South,180,4.0,6.0,62,0.00,,,0.00,meteohub,2014-03-07 00:12:00,
2014-03-06 16:17:00,68.5,55.4,30.05,North,0,4.0,5.0,63,0.00,,,0.00,meteohub,2014-03-07 00:17:00,
2014-03-06 16:22:00,68.4,55.8,30.05,North,0,5.0,5.0,64,0.00,,,0.00,meteohub,2014-03-07 00:22:00,
2014-03-06 16:27:00,68.0,55.8,30.05,NW,315,4.0,5.0,65,0.00,,,0.00,meteohub,2014-03-07 00:27:00,
2014-03-06 16:32:00,67.6,56.3,30.05,SW,225,3.0,9.0,67,0.00,,,0.00,meteohub,2014-03-07 00:32:00,
2014-03-06 16:37:00,67.5,56.1,30.05,South,180,4.0,9.0,67,0.00,,,0.00,meteohub,2014-03-07 00:37:00,
2014-03-06 16:42:00,67.1,56.1,30.06,South,180,5.0,6.0,68,0.00,,,0.00,meteohub,2014-03-07 00:42:00,
2014-03-06 16:47:00,66.9,55.6,30.06,South,180,5.0,6.0,67,0.00,,,0.00,meteohub,2014-03-07 00:47:00,
2014-03-06 16:52:00,66.9,55.6,30.05,South,180,5.0,6.0,67,0.00,,,0.00,meteohub,2014-03-07 00:52:00,
2014-03-06 16:57:00,66.2,56.1,30.05,SW,225,3.0,6.0,70,0.00,,,0.00,meteohub,2014-03-07 00:57:00,
2014-03-06 17:02:00,66.2,56.5,30.06,SW,225,4.0,5.0,71,0.00,,,0.00,meteohub,2014-03-07 01:02:00,
2014-03-06 17:07:00,66.0,56.7,30.06,South,180,3.0,6.0,72,0.00,,,0.00,meteohub,2014-03-07 01:07:00,
2014-03-06 17:12:00,65.7,56.8,30.05,South,180,4.0,6.0,73,0.00,,,0.00,meteohub,2014-03-07 01:12:00,
2014-03-06 17:17:00,65.5,56.7,30.05,West,270,2.0,9.0,73,0.00,,,0.00,meteohub,2014-03-07 01:17:00,
2014-03-06 17:22:00,65.5,56.7,30.05,SE,135,4.0,9.0,73,0.00,,,0.00,meteohub,2014-03-07 01:22:00,
2014-03-06 17:27:00,65.1,56.3,30.05,NW,315,2.0,9.0,73,0.00,,,0.00,meteohub,2014-03-07 01:27:00,
2014-03-06 17:32:00,64.9,56.1,30.06,SW,225,4.0,4.0,73,0.00,,,0.00,meteohub,2014-03-07 01:32:00,
2014-03-06 17:37:00,64.6,55.8,30.06,SE,135,2.0,4.0,73,0.00,,,0.00,meteohub,2014-03-07 01:37:00,
2014-03-06 17:42:00,64.2,55.8,30.06,South,180,4.0,4.0,74,0.00,,,0.00,meteohub,2014-03-07 01:42:00,
2014-03-06 17:47:00,63.9,56.1,30.06,SW,225,4.0,5.0,76,0.00,,,0.00,meteohub,2014-03-07 01:47:00,
2014-03-06 17:52:00,63.7,55.9,30.06,SW,225,2.0,5.0,76,0.00,,,0.00,meteohub,2014-03-07 01:52:00,
2014-03-06 17:57:00,63.3,55.9,30.05,SW,225,4.0,5.0,77,0.00,,,0.00,meteohub,2014-03-07 01:57:00,
2014-03-06 18:02:00,63.3,56.3,30.06,South,180,2.0,4.0,78,0.00,,,0.00,meteohub,2014-03-07 02:02:00,
2014-03-06 18:07:00,63.3,56.3,30.06,South,180,2.0,4.0,78,0.00,,,0.00,meteohub,2014-03-07 02:07:00,
2014-03-06 18:12:00,62.8,55.8,30.06,SW,225,2.0,4.0,78,0.00,,,0.00,meteohub,2014-03-07 02:12:00,
2014-03-06 18:17:00,62.6,55.6,30.06,SW,225,2.0,2.0,78,0.00,,,0.00,meteohub,2014-03-07 02:17:00,
2014-03-06 18:22:00,62.2,55.9,30.06,SW,225,3.0,4.0,80,0.00,,,0.00,meteohub,2014-03-07 02:22:00,
2014-03-06 18:27:00,62.1,56.1,30.06,West,270,3.0,4.0,81,0.00,,,0.00,meteohub,2014-03-07 02:27:00,
2014-03-06 18:32:00,62.1,56.1,30.06,SW,225,2.0,4.0,81,0.00,,,0.00,meteohub,2014-03-07 02:32:00,
2014-03-06 18:37:00,61.9,55.9,30.06,SW,225,2.0,4.0,81,0.00,,,0.00,meteohub,2014-03-07 02:37:00,
2014-03-06 18:42:00,61.7,56.1,30.06,South,180,2.0,4.0,82,0.00,,,0.00,meteohub,2014-03-07 02:42:00,
2014-03-06 18:47:00,61.5,55.9,30.06,West,270,3.0,4.0,82,0.00,,,0.00,meteohub,2014-03-07 02:47:00,
2014-03-06 18:52:00,61.3,55.8,30.06,South,180,0.0,4.0,82,0.00,,,0.00,meteohub,2014-03-07 02:52:00,
2014-03-06 18:57:00,61.0,55.4,30.06,West,270,0.0,3.0,82,0.00,,,0.00,meteohub,2014-03-07 02:57:00,
2014-03-06 19:02:00,60.8,55.6,30.06,SW,225,2.0,3.0,83,0.00,,,0.00,meteohub,2014-03-07 03:02:00,
2014-03-06 19:07:00,60.6,55.8,30.07,SW,225,0.0,2.0,84,0.00,,,0.00,meteohub,2014-03-07 03:07:00,
2014-03-06 19:12:00,60.4,55.6,30.07,SW,225,1.0,2.0,84,0.00,,,0.00,meteohub,2014-03-07 03:12:00,
2014-03-06 19:17:00,60.3,55.8,30.06,South,180,2.0,2.0,85,0.00,,,0.00,meteohub,2014-03-07 03:17:00,
2014-03-06 19:22:00,60.1,55.6,30.07,SW,225,2.0,3.0,85,0.00,,,0.00,meteohub,2014-03-07 03:22:00,
2014-03-06 19:27:00,59.9,55.8,30.07,SW,225,1.0,3.0,86,0.00,,,0.00,meteohub,2014-03-07 03:27:00,
2014-03-06 19:32:00,59.7,55.6,30.07,SW,225,0.0,3.0,86,0.00,,,0.00,meteohub,2014-03-07 03:32:00,
2014-03-06 19:37:00,59.7,55.6,30.07,West,270,2.0,3.0,86,0.00,,,0.00,meteohub,2014-03-07 03:37:00,
2014-03-06 19:42:00,59.5,55.6,30.07,SW,225,0.0,3.0,87,0.00,,,0.00,meteohub,2014-03-07 03:42:00,
2014-03-06 19:47:00,59.4,55.4,30.07,SW,225,0.0,3.0,87,0.00,,,0.00,meteohub,2014-03-07 03:47:00,
2014-03-06 19:52:00,59.2,55.4,30.07,West,270,1.0,2.0,87,0.00,,,0.00,meteohub,2014-03-07 03:52:00,
2014-03-06 19:57:00,59.2,55.6,30.07,SW,225,1.0,2.0,88,0.00,,,0.00,meteohub,2014-03-07 03:57:00,
2014-03-06 20:02:00,59.0,55.4,30.07,SW,225,2.0,2.0,88,0.00,,,0.00,meteohub,2014-03-07 04:02:00,
2014-03-06 20:07:00,59.0,55.4,30.07,SW,225,2.0,2.0,88,0.00,,,0.00,meteohub,2014-03-07 04:07:00,
2014-03-06 20:12:00,58.8,55.9,30.06,SW,225,2.0,2.0,90,0.00,,,0.00,meteohub,2014-03-07 04:12:00,
2014-03-06 20:17:00,58.6,55.8,30.07,South,180,1.0,2.0,90,0.00,,,0.00,meteohub,2014-03-07 04:17:00,
2014-03-06 20:22:00,58.5,55.8,30.07,North,0,0.0,2.0,91,0.00,,,0.00,meteohub,2014-03-07 04:22:00,
2014-03-06 20:27:00,58.5,55.8,30.07,West,270,0.0,2.0,91,0.00,,,0.00,meteohub,2014-03-07 04:27:00,
2014-03-06 20:32:00,58.3,55.6,30.07,North,0,0.0,2.0,91,0.00,,,0.00,meteohub,2014-03-07 04:32:00,
2014-03-06 20:37:00,58.1,55.4,30.07,SE,135,0.0,0.0,91,0.00,,,0.00,meteohub,2014-03-07 04:37:00,
2014-03-06 20:42:00,58.1,55.4,30.06,SE,135,0.0,0.0,91,0.00,,,0.00,meteohub,2014-03-07 04:42:00,
2014-03-06 20:47:00,57.9,55.2,30.07,SE,135,0.0,0.0,91,0.00,,,0.00,meteohub,2014-03-07 04:47:00,
2014-03-06 20:52:00,57.7,55.2,30.07,SE,135,0.0,0.0,91,0.00,,,0.00,meteohub,2014-03-07 04:52:00,
2014-03-06 20:57:00,57.7,55.4,30.07,North,0,0.0,0.0,92,0.00,,,0.00,meteohub,2014-03-07 04:57:00,
2014-03-06 21:01:00,57.6,55.2,30.07,SW,225,0.0,0.0,92,0.00,,,0.00,meteohub,2014-03-07 05:01:00,
2014-03-06 21:06:00,57.4,55.0,30.07,SW,225,0.0,0.0,92,0.00,,,0.00,meteohub,2014-03-07 05:06:00,
2014-03-06 21:11:00,57.4,55.0,30.07,NE,45,0.0,0.0,92,0.00,,,0.00,meteohub,2014-03-07 05:11:00,
2014-03-06 21:16:00,57.2,54.9,30.07,East,90,0.0,0.0,92,0.00,,,0.00,meteohub,2014-03-07 05:16:00,
2014-03-06 21:21:00,57.2,54.9,30.07,East,90,0.0,0.0,92,0.00,,,0.00,meteohub,2014-03-07 05:21:00,
2014-03-06 21:26:00,57.0,55.0,30.07,East,90,0.0,0.0,93,0.00,,,0.00,meteohub,2014-03-07 05:26:00,
2014-03-06 21:31:00,57.0,55.2,30.07,East,90,0.0,0.0,94,0.00,,,0.00,meteohub,2014-03-07 05:31:00,
2014-03-06 21:36:00,56.8,55.2,30.08,East,90,0.0,0.0,94,0.00,,,0.00,meteohub,2014-03-07 05:36:00,
2014-03-06 21:41:00,57.0,55.2,30.08,East,90,0.0,0.0,94,0.00,,,0.00,meteohub,2014-03-07 05:41:00,
2014-03-06 21:46:00,57.0,55.2,30.08,East,90,0.0,0.0,94,0.00,,,0.00,meteohub,2014-03-07 05:46:00,
2014-03-06 21:52:00,57.0,55.2,30.08,East,90,0.0,0.0,94,0.00,,,0.00,meteohub,2014-03-07 05:52:00,
2014-03-06 21:57:00,57.2,55.2,30.08,East,90,0.0,0.0,93,0.00,,,0.00,meteohub,2014-03-07 05:57:00,
2014-03-06 22:02:00,57.2,55.4,30.08,East,90,0.0,0.0,94,0.00,,,0.00,meteohub,2014-03-07 06:02:00,
2014-03-06 22:07:00,57.2,55.4,30.08,East,90,0.0,0.0,94,0.00,,,0.00,meteohub,2014-03-07 06:07:00,
2014-03-06 22:12:00,57.2,55.4,30.08,SE,135,0.0,0.0,94,0.00,,,0.00,meteohub,2014-03-07 06:12:00,
2014-03-06 22:17:00,57.2,55.4,30.08,SE,135,0.0,0.0,94,0.00,,,0.00,meteohub,2014-03-07 06:17:00,
2014-03-06 22:22:00,57.2,55.4,30.07,SE,135,0.0,0.0,94,0.00,,,0.00,meteohub,2014-03-07 06:22:00,
2014-03-06 22:27:00,57.2,55.4,30.08,SE,135,0.0,0.0,94,0.00,,,0.00,meteohub,2014-03-07 06:27:00,
2014-03-06 22:32:00,57.2,55.4,30.08,North,0,0.0,0.0,94,0.00,,,0.00,meteohub,2014-03-07 06:32:00,
2014-03-06 22:37:00,57.4,55.9,30.08,East,90,0.0,0.0,95,0.00,,,0.00,meteohub,2014-03-07 06:37:00,
2014-03-06 22:42:00,57.4,55.9,30.07,East,90,0.0,0.0,95,0.00,,,0.00,meteohub,2014-03-07 06:42:00,
2014-03-06 22:47:00,57.4,55.9,30.07,East,90,0.0,0.0,95,0.00,,,0.00,meteohub,2014-03-07 06:47:00,
2014-03-06 22:52:00,57.2,55.8,30.07,East,90,0.0,0.0,95,0.00,,,0.00,meteohub,2014-03-07 06:52:00,
2014-03-06 22:57:00,57.2,55.8,30.07,East,90,0.0,0.0,95,0.00,,,0.00,meteohub,2014-03-07 06:57:00,
2014-03-06 23:02:00,57.2,55.8,30.07,North,0,0.0,0.0,95,0.00,,,0.00,meteohub,2014-03-07 07:02:00,
2014-03-06 23:07:00,57.2,55.8,30.07,North,0,0.0,0.0,95,0.00,,,0.00,meteohub,2014-03-07 07:07:00,
2014-03-06 23:12:00,57.2,55.8,30.07,North,0,0.0,0.0,95,0.00,,,0.00,meteohub,2014-03-07 07:12:00,
2014-03-06 23:17:00,57.2,56.1,30.08,NE,45,0.0,0.0,96,0.00,,,0.00,meteohub,2014-03-07 07:17:00,
2014-03-06 23:22:00,57.2,56.1,30.08,West,270,1.0,0.0,96,0.00,,,0.00,meteohub,2014-03-07 07:22:00,
2014-03-06 23:27:00,57.2,56.1,30.07,West,270,1.0,2.0,96,0.00,,,0.00,meteohub,2014-03-07 07:27:00,
2014-03-06 23:32:00,57.2,55.8,30.07,West,270,0.0,2.0,95,0.00,,,0.00,meteohub,2014-03-07 07:32:00,
2014-03-06 23:37:00,57.2,55.8,30.07,SW,225,1.0,2.0,95,0.00,,,0.00,meteohub,2014-03-07 07:37:00,
2014-03-06 23:42:00,57.2,55.8,30.06,North,0,0.0,2.0,95,0.00,,,0.00,meteohub,2014-03-07 07:42:00,
2014-03-06 23:47:00,57.4,55.9,30.07,North,0,3.0,3.0,95,0.00,,,0.00,meteohub,2014-03-07 07:47:00,
2014-03-06 23:52:00,57.4,56.3,30.06,NW,315,2.0,4.0,96,0.00,,,0.00,meteohub,2014-03-07 07:52:00,
2014-03-06 23:57:00,57.2,56.1,30.06,NE,45,2.0,4.0,96,0.00,,,0.00,meteohub,2014-03-07 07:57:00,